Theta_e
300 300 301 301 301 301 301 300 300 300 300 300 301 301 301 302 301 301 303 305 306 307 308 308 307 305 304 304 302 300 299 298 297 296 295 295 294 294 293 293 292 292
299 299 298 298 298 298 300 300 300 300 300 300 301 301 300 301 301 302 303 304 305 306 307 307 306 306 305 303 302 300 299 298 297 297 296 294 294 294 293 293 292 292
297 297 298 298 300 299 299 299 299 300 300 300 300 300 300 300 301 302 303 303 303 305 306 306 306 305 304 303 302 300 299 298 297 297 295 295 295 294 293 293 292 291
296 297 298 298 299 299 298 298 298 298 299 299 299 300 300 301 301 302 302 301 302 303 304 305 305 305 304 303 301 300 299 299 298 297 296 295 294 294 293 293 292 292
295 296 296 297 297 297 296 297 298 298 298 300 299 299 299 299 300 299 299 299 299 300 302 303 304 304 303 302 301 300 298 298 297 297 295 294 294 293 293 292 291 291
293 295 295 296 296 296 296 297 298 298 298 297 299 298 297 298 297 298 298 297 297 298 299 300 302 302 302 302 301 300 299 297 296 296 294 294 294 293 292 292 291 290
293 292 293 294 294 294 295 296 297 296 297 298 294 295 294 295 295 296 296 296 297 297 297 298 299 300 300 300 299 298 298 297 296 296 295 295 294 293 292 291 291 290
291 291 292 292 292 293 293 294 294 295 295 292 294 295 293 295 294 295 295 295 296 297 297 297 299 300 299 297 296 296 296 298 297 295 294 294 293 293 292 292 291 290
290 289 289 289 289 290 291 292 292 292 290 292 293 292 291 292 293 293 294 294 295 295 296 297 298 297 298 297 296 296 296 296 297 296 295 294 294 293 293 293 292 291
288 287 288 287 288 289 290 290 291 290 289 290 292 290 291 291 291 293 292 293 293 293 293 293 295 294 294 295 297 296 296 297 296 296 296 295 295 295 294 294 293 291
286 286 286 286 287 287 288 288 288 288 288 290 290 290 291 289 290 289 291 291 293 293 293 292 293 294 294 295 295 296 296 296 296 296 296 296 296 295 293 294 294 293
285 285 285 286 287 287 288 288 287 287 289 288 288 291 290 289 290 290 290 291 292 292 292 292 291 292 293 294 294 294 294 295 296 296 296 296 296 296 295 295 294 294
285 285 285 285 286 286 287 287 287 287 287 289 288 288 289 289 289 289 290 290 291 291 292 292 292 291 292 293 294 294 294 294 295 295 295 296 296 296 296 295 295 294
285 284 285 285 285 285 286 286 287 287 287 288 287 288 288 289 290 290 291 290 290 291 291 291 291 292 292 293 293 294 294 294 294 294 294 295 295 295 295 295 295 295
285 284 284 284 285 285 285 286 286 287 287 287 286 287 288 288 289 290 290 290 289 289 290 290 291 292 292 293 293 294 294 294 294 294 294 294 294 295 295 295 295 294
285 285 285 284 285 285 286 286 286 286 286 286 287 287 287 288 288 289 289 290 290 290 289 290 291 292 291 292 293 293 293 293 294 294 294 294 293 293 294 294 294 295
285 286 285 286 285 285 285 286 286 286 285 286 286 287 287 288 287 288 288 289 289 290 290 291 291 291 291 294 294 295 293 292 292 292 293 293 293 293 293 293 293 294
285 285 285 285 285 286 286 286 285 285 285 286 286 286 287 286 286 287 288 288 289 289 290 291 291 291 293 293 294 294 293 292 291 291 292 292 292 293 293 292 292 293
284 284 285 285 285 285 285 285 284 285 285 285 286 286 286 286 287 287 287 288 288 288 289 290 290 292 293 293 293 294 294 293 292 291 291 291 292 292 292 292 292 292
283 283 283 284 284 284 284 284 284 285 285 285 285 285 285 286 286 286 287 287 287 288 288 289 289 290 292 293 293 293 293 293 291 291 291 291 291 292 292 293 293 292
283 283 283 283 283 283 282 283 283 283 284 284 284 284 285 286 286 286 287 287 287 287 288 288 289 291 292 292 292 293 293 293 291 291 290 290 291 291 292 292 292 292
282 282 282 281 282 281 281 282 282 283 284 284 284 284 284 284 285 285 286 286 287 287 287 287 288 291 291 292 292 293 293 290 290 289 289 289 289 290 291 291 291 291
282 281 281 281 281 281 281 282 282 283 283 282 283 283 284 284 284 285 285 285 286 286 286 286 287 288 290 291 291 292 291 289 288 288 288 288 288 289 290 290 290 290
281 281 281 281 281 281 282 282 282 282 282 283 283 284 284 284 285 285 285 285 285 285 286 286 287 287 289 290 291 291 290 288 288 288 287 287 288 288 289 289 289 288
281 280 280 280 280 281 281 282 282 283 283 283 283 283 284 284 284 284 285 285 284 285 285 285 286 286 289 289 290 290 289 287 287 287 287 287 287 288 289 289 289 288
280 279 280 280 280 281 281 282 282 282 282 282 282 282 283 283 283 283 283 284 284 284 285 285 285 285 286 289 289 290 290 288 287 287 286 287 287 287 287 288 288 288
Wind_Speed
6 5 6 6 6 5 6 6 6 7 7 6 7 7 8 7 6 7 7 7 7 8 8 8 8 8 9 10 11 11 10 12 11 10 11 11 11 12 12 13 12 12
7 6 5 4 4 4 5 6 7 7 7 7 7 7 6 6 6 7 7 7 7 8 8 8 8 9 9 9 10 11 10 10 12 8 10 13 13 13 14 16 15 13
5 5 6 7 8 7 7 6 6 6 7 7 6 6 7 6 6 6 7 7 7 8 8 8 8 9 9 9 9 9 10 11 12 11 11 13 13 13 14 13 12 13
6 6 7 7 7 7 6 5 6 6 6 6 7 7 7 6 6 7 7 7 7 7 7 7 8 8 9 9 9 9 10 11 12 11 12 10 11 12 12 11 12 12
6 6 5 6 5 5 4 6 7 6 7 8 6 6 7 7 7 6 6 6 6 7 6 7 7 7 7 8 9 9 9 10 9 9 9 11 11 10 11 10 12 14
4 4 4 5 5 4 6 6 7 6 6 6 8 6 6 7 6 7 6 7 6 7 7 7 7 7 6 7 7 8 9 9 10 11 11 12 12 11 9 11 12 14
5 3 4 4 4 4 5 6 6 6 6 7 4 6 6 7 7 7 7 7 7 7 8 8 8 8 6 5 7 8 9 10 10 11 13 12 12 13 11 12 13 14
4 3 4 4 4 5 6 6 6 6 6 5 6 7 5 8 7 7 7 7 8 8 8 8 8 8 7 6 6 7 9 9 9 10 10 11 10 12 11 11 12 13
3 4 4 4 4 4 5 6 6 5 5 6 7 7 5 6 7 7 7 7 8 8 8 7 8 8 7 7 8 9 10 9 10 10 12 12 12 13 13 13 13 14
3 3 3 4 5 5 5 6 5 5 5 6 7 5 7 6 6 6 7 8 8 8 8 8 7 6 7 7 9 9 10 11 10 11 12 13 13 13 13 13 15 14
4 3 4 4 5 4 6 5 5 5 5 7 6 7 7 5 6 5 7 7 9 9 9 8 8 8 8 8 9 9 10 10 11 11 12 12 13 13 13 14 14 15
4 3 4 5 5 5 6 5 5 5 6 5 6 7 6 5 6 6 7 9 9 9 9 9 8 7 8 9 9 9 9 10 11 11 11 12 12 12 13 13 13 14
4 4 4 4 4 5 5 5 5 6 5 7 5 6 6 7 6 7 8 8 10 8 8 9 8 7 8 9 9 9 10 10 10 11 11 11 12 12 12 13 13 13
4 4 4 4 4 4 5 5 5 5 6 5 4 6 7 7 7 8 9 8 9 8 9 8 8 8 9 9 9 10 10 11 10 11 12 12 12 12 12 13 13 13
4 4 3 4 4 4 5 5 5 5 5 5 5 6 6 7 7 7 8 8 7 8 8 7 8 9 9 9 10 11 10 11 12 12 12 13 13 13 12 13 13 13
5 4 4 4 4 4 5 5 5 5 5 5 6 6 6 6 7 7 7 8 8 8 7 7 8 8 10 15 14 11 9 10 11 11 12 12 13 13 13 12 13 13
5 5 5 5 5 4 5 5 5 5 5 6 6 6 6 7 6 7 8 8 8 9 9 8 8 8 14 16 17 18 14 11 11 12 11 12 12 13 13 12 12 12
6 6 6 6 6 6 6 6 5 5 6 6 6 6 7 6 6 8 8 8 8 8 9 9 9 11 16 16 17 18 17 13 11 11 11 11 11 13 13 12 12 12
5 6 6 6 7 6 6 6 5 6 6 6 7 6 5 6 8 7 8 8 8 10 10 10 9 12 15 16 17 18 19 17 11 11 12 13 12 13 13 13 12 12
5 5 5 5 6 6 6 6 5 6 6 6 6 6 7 7 7 9 8 8 9 9 10 9 9 10 14 16 16 17 18 16 12 12 13 13 13 13 13 13 13 13
5 5 5 5 5 5 5 5 5 5 6 6 5 6 6 7 7 7 7 7 8 8 9 10 8 11 14 15 16 17 18 16 12 11 12 12 12 13 14 14 14 13
4 5 5 4 5 4 4 5 4 5 6 6 5 5 5 6 6 6 8 9 8 8 9 11 8 11 14 15 16 16 18 12 10 11 12 12 13 13 13 13 12 13
5 5 6 5 5 5 5 6 6 6 5 4 5 5 6 6 6 6 6 7 8 7 9 11 9 8 12 14 14 16 13 10 10 10 11 12 13 13 13 13 12 12
5 5 6 6 6 7 7 7 6 4 4 4 6 8 8 7 7 8 6 6 7 8 7 10 11 8 11 13 14 15 13 10 9 10 12 12 12 13 11 11 13 17
5 5 5 5 6 7 7 8 8 8 8 6 6 6 7 7 7 8 9 6 5 8 9 10 11 10 10 13 15 14 12 8 9 9 12 12 11 13 12 11 12 12
5 5 5 6 7 8 8 7 7 7 8 8 8 6 8 8 7 7 10 10 6 7 8 7 9 10 7 12 14 14 16 11 8 9 11 12 12 12 13 12 11 11
Wind_Direction
213 208 216 215 222 218 219 217 215 218 219 216 218 222 218 222 208 208 218 223 233 242 239 232 219 216 214 208 203 203 206 213 217 214 213 211 217 216 216 216 212 211
219 213 215 217 229 223 225 217 220 214 226 217 222 223 223 216 220 209 217 224 226 233 236 233 224 218 212 208 204 202 205 207 216 210 212 210 216 214 218 218 217 216
221 215 212 215 220 224 223 222 219 224 222 225 223 221 225 213 224 220 223 222 226 235 234 230 226 220 215 212 208 209 210 210 216 213 213 216 217 217 219 218 221 217
224 217 216 222 222 228 223 222 229 229 230 231 225 223 218 221 216 222 224 226 228 230 233 234 233 223 215 213 210 212 214 216 216 211 214 218 221 223 222 216 219 221
223 223 224 226 231 232 225 225 231 227 227 232 235 224 223 224 221 222 223 227 227 231 229 235 237 235 223 219 210 213 214 222 222 219 219 221 224 222 225 219 218 222
234 225 226 229 231 227 232 233 236 232 234 236 232 224 225 224 221 222 222 226 227 231 233 232 232 234 230 226 220 220 216 218 218 214 218 221 223 219 221 220 222 224
241 227 242 237 244 231 238 243 242 238 238 236 237 231 223 226 223 224 223 224 229 229 231 231 232 235 229 226 222 225 225 223 224 221 222 223 220 222 218 220 222 225
246 234 232 233 234 237 238 244 244 240 240 244 236 241 217 228 226 225 222 226 229 234 231 232 235 235 229 221 227 232 233 228 231 228 232 233 226 230 224 225 224 227
245 245 240 245 246 249 248 249 250 251 242 239 244 246 234 227 229 224 224 226 231 235 237 234 232 235 232 224 228 231 233 232 227 225 227 229 227 228 225 224 227 227
257 257 251 249 248 249 252 254 253 253 245 243 250 249 245 240 230 229 226 228 233 238 236 237 236 230 230 229 232 230 235 235 231 229 229 231 231 232 229 225 226 228
282 276 266 263 258 261 259 260 255 255 248 244 248 250 245 242 242 228 233 231 232 235 235 233 234 230 228 231 232 232 235 237 237 236 235 235 235 235 232 230 230 229
289 285 268 267 267 269 266 265 263 255 255 253 241 252 254 243 237 231 224 232 233 235 233 235 233 230 233 237 238 238 239 240 242 242 242 241 240 237 235 233 233 233
294 283 276 275 271 269 274 273 266 263 258 258 249 245 254 251 240 238 236 232 237 236 235 235 234 229 231 235 238 239 241 244 246 248 249 248 246 242 239 237 236 236
315 301 294 281 276 276 272 271 273 270 263 264 263 254 249 248 246 239 241 233 239 237 238 237 236 237 234 234 236 239 241 243 244 247 250 251 249 247 244 242 240 238
330 327 308 299 291 286 282 277 273 270 273 271 263 259 254 252 249 246 250 248 245 240 243 235 236 236 235 234 235 237 238 247 248 250 251 253 252 250 246 245 244 241
346 341 340 320 317 302 292 289 284 282 278 274 266 259 261 258 257 255 252 253 255 251 242 239 240 240 239 237 235 238 241 244 247 248 248 251 252 254 251 246 245 243
354 348 346 345 331 318 311 309 305 301 293 284 280 277 272 270 265 264 257 253 253 254 253 245 243 242 244 244 245 245 246 249 249 252 248 250 252 252 255 251 248 245
352 346 350 344 341 332 327 318 313 308 299 292 292 289 279 277 272 264 265 265 263 260 257 256 254 249 248 248 248 248 245 247 250 251 252 250 250 252 254 253 252 250
346 347 343 342 340 332 325 323 319 312 304 302 294 285 292 286 278 279 274 271 266 266 263 259 259 255 256 255 253 252 250 249 254 251 253 252 251 253 254 254 253 252
343 341 341 334 327 326 323 320 319 305 298 292 290 292 283 279 273 269 269 266 264 265 267 265 262 266 261 260 259 258 257 254 255 255 255 256 255 254 256 256 252 252
348 342 338 330 324 319 314 307 299 293 290 285 277 273 274 271 272 274 267 264 265 264 271 272 268 270 267 264 264 264 264 261 261 261 260 261 258 255 255 255 255 254
344 335 329 325 322 321 315 310 305 296 299 297 285 276 265 266 270 260 271 273 268 269 272 273 270 266 270 270 269 270 269 267 265 262 263 262 261 258 257 256 256 255
343 338 335 334 331 330 329 327 328 320 310 298 297 289 288 286 278 272 270 274 276 269 271 276 275 265 267 269 270 270 272 269 267 266 265 264 264 263 260 261 258 254
337 340 337 336 339 340 332 326 318 302 305 316 318 317 314 304 297 295 278 266 274 276 266 278 284 271 267 271 268 266 262 265 266 267 268 267 271 267 264 263 259 251
329 333 333 331 334 331 332 330 332 330 319 320 315 308 300 302 302 300 299 286 268 274 276 273 279 280 269 270 269 267 265 261 263 264 270 271 272 273 270 262 263 258
327 332 333 338 334 329 329 326 322 326 327 326 319 316 310 311 305 300 298 296 290 275 277 267 276 281 272 268 270 268 264 263 261 263 267 271 268 269 275 272 265 264